,,PA_Meas_PMT16A,,PR_Meas_QMR101_102,,RH_Meas_QMH101,,SR_Meas_QMS101,,TA_Meas_QMH101,,GenWind,,GenWind,
time,status,PA,status,PR,status,RH,status,SR,status,TA,status,DirAvg,status,SpdAvg,
2012-01-18, 00:00:04,VALID,916.169,VALID,0,VALID,92.6016,VALID,0,VALID,18.6903,VALID,63,VALID,0.0125,
2012-01-18, 00:01:04,VALID,916.224,VALID,0,VALID,92.7312,VALID,0,VALID,18.6499,VALID,63,VALID,0.494922,
2012-01-18, 00:02:04,VALID,916.23,VALID,0,VALID,92.6702,VALID,0,VALID,18.6499,VALID,63,VALID,0.367188,
2012-01-18, 00:03:04,VALID,916.214,VALID,0,VALID,92.6626,VALID,0,VALID,18.6304,VALID,63,VALID,0.230078,
2012-01-18, 00:04:04,VALID,916.219,VALID,0,VALID,92.6855,VALID,0,VALID,18.6304,VALID,63,VALID,0,
2012-01-18, 00:05:04,VALID,916.187,VALID,0,VALID,92.6321,VALID,0,VALID,18.6109,VALID,63,VALID,0,
2012-01-18, 00:06:04,VALID,916.184,VALID,0,VALID,92.716,VALID,0,VALID,18.5914,VALID,63,VALID,0.252344,
2012-01-18, 00:07:04,VALID,916.181,VALID,0,VALID,92.8227,VALID,0,VALID,18.5525,VALID,63,VALID,0.379687,
2012-01-18, 00:08:04,VALID,916.193,VALID,0,VALID,92.9752,VALID,0,VALID,18.533,VALID,63,VALID,0.235156,
2012-01-18, 00:09:04,VALID,916.204,VALID,0,VALID,93.1658,VALID,0,VALID,18.533,VALID,63,VALID,0,
2012-01-18, 00:10:04,VALID,916.201,VALID,0,VALID,93.2344,VALID,0,VALID,18.494,VALID,63,VALID,0,
2012-01-18, 00:11:04,VALID,916.233,VALID,0,VALID,93.2496,VALID,0,VALID,18.455,VALID,63,VALID,0.692187,
2012-01-18, 00:12:04,VALID,916.203,VALID,0,VALID,93.3335,VALID,0,VALID,18.416,VALID,63,VALID,0.533203,
2012-01-18, 00:13:04,VALID,916.168,VALID,0,VALID,93.3945,VALID,0,VALID,18.416,VALID,63,VALID,0.264062,
2012-01-18, 00:14:04,VALID,916.14,VALID,0,VALID,93.2649,VALID,0,VALID,18.377,VALID,63,VALID,0,
2012-01-18, 00:15:04,VALID,916.113,VALID,0,VALID,93.3106,VALID,0,VALID,18.3185,VALID,63,VALID,0,
2012-01-18, 00:16:04,VALID,916.116,VALID,0,VALID,93.6765,VALID,0,VALID,18.3185,VALID,63,VALID,0,
2012-01-18, 00:17:04,VALID,916.135,VALID,0,VALID,93.8061,VALID,0,VALID,18.2796,VALID,63,VALID,0,
2012-01-18, 00:18:04,VALID,916.14,VALID,0,VALID,93.9891,VALID,0,VALID,18.299,VALID,63,VALID,0,
2012-01-18, 00:19:04,VALID,916.088,VALID,0,VALID,94.0882,VALID,0,VALID,18.2796,VALID,63,VALID,0,
2012-01-18, 00:20:04,VALID,916.116,VALID,0,VALID,94.0348,VALID,0,VALID,18.2406,VALID,63,VALID,0,
2012-01-18, 00:21:04,VALID,916.113,VALID,0,VALID,94.1111,VALID,0,VALID,18.242,VALID,63,VALID,0,
2012-01-18, 00:22:04,VALID,916.096,VALID,0,VALID,94.2559,VALID,0,VALID,18.2225,VALID,63,VALID,0,
2012-01-18, 00:23:04,VALID,916.085,VALID,0,VALID,94.3169,VALID,0,VALID,18.1807,VALID,63,VALID,0,
2012-01-18, 00:24:04,VALID,916.072,VALID,0,VALID,94.3779,VALID,0,VALID,18.1821,VALID,63,VALID,0,
2012-01-18, 00:25:04,VALID,916.072,VALID,0,VALID,94.4617,VALID,0,VALID,18.1431,VALID,63,VALID,0,
2012-01-18, 00:26:04,VALID,916.052,VALID,0,VALID,94.6218,VALID,0,VALID,18.1431,VALID,63,VALID,0,
2012-01-18, 00:27:04,VALID,916.018,VALID,0,VALID,94.6676,VALID,0.107441,VALID,18.1626,VALID,63,VALID,0,
2012-01-18, 00:28:04,VALID,915.998,VALID,0,VALID,94.4846,VALID,0,VALID,18.1431,VALID,63,VALID,0.178516,
2012-01-18, 00:29:04,VALID,915.998,VALID,0,VALID,94.4541,VALID,0,VALID,18.1041,VALID,63,VALID,0.264844,
2012-01-18, 00:30:04,VALID,915.976,VALID,0,VALID,94.6066,VALID,0,VALID,18.0651,VALID,63,VALID,0.223828,
2012-01-18, 00:31:04,VALID,915.948,VALID,0,VALID,94.8963,VALID,0,VALID,18.0846,VALID,49,VALID,0.646484,
2012-01-18, 00:32:04,VALID,915.949,VALID,0,VALID,94.8582,VALID,0,VALID,18.1236,VALID,49,VALID,0,
2012-01-18, 00:33:04,VALID,915.96,VALID,0,VALID,94.8658,VALID,0,VALID,18.1431,VALID,49,VALID,0.746875,
2012-01-18, 00:34:04,VALID,915.925,VALID,0,VALID,94.7591,VALID,0,VALID,18.1417,VALID,49,VALID,0.193359,
2012-01-18, 00:35:04,VALID,915.905,VALID,0,VALID,94.6752,VALID,0,VALID,18.1821,VALID,47,VALID,0.773438,
2012-01-18, 00:36:04,VALID,915.933,VALID,0,VALID,94.6676,VALID,0.107441,VALID,18.2002,VALID,37,VALID,0.329688,
2012-01-18, 00:37:04,VALID,915.88,VALID,0,VALID,94.7057,VALID,0,VALID,18.2615,VALID,37,VALID,0.0671875,
2012-01-18, 00:38:04,VALID,915.908,VALID,0,VALID,94.82,VALID,0,VALID,18.2601,VALID,37,VALID,0.167578,
2012-01-18, 00:39:04,VALID,915.905,VALID,0,VALID,94.8353,VALID,0,VALID,18.2796,VALID,37,VALID,0,
2012-01-18, 00:40:04,VALID,915.881,VALID,0,VALID,94.8582,VALID,0,VALID,18.2587,VALID,37,VALID,0.621094,
2012-01-18, 00:41:04,VALID,915.878,VALID,0,VALID,94.7972,VALID,0,VALID,18.2601,VALID,37,VALID,0.0160156,
2012-01-18, 00:42:04,VALID,915.87,VALID,0,VALID,94.8734,VALID,0,VALID,18.2406,VALID,37,VALID,0.293359,
2012-01-18, 00:43:04,VALID,915.88,VALID,0,VALID,94.9192,VALID,0,VALID,18.2406,VALID,37,VALID,0.24375,
2012-01-18, 00:44:04,VALID,915.87,VALID,0,VALID,94.9192,VALID,0,VALID,18.2601,VALID,37,VALID,0,
2012-01-18, 00:45:04,VALID,915.87,VALID,0,VALID,94.8582,VALID,0.107441,VALID,18.2406,VALID,37,VALID,0,
2012-01-18, 00:46:04,VALID,915.866,VALID,0,VALID,94.8353,VALID,0,VALID,18.2225,VALID,37,VALID,0.0203125,
2012-01-18, 00:47:04,VALID,915.84,VALID,0,VALID,94.8582,VALID,0,VALID,18.2016,VALID,37,VALID,0.00195313,
2012-01-18, 00:48:04,VALID,915.864,VALID,0,VALID,95.003,VALID,0,VALID,18.2016,VALID,37,VALID,0.16875,
2012-01-18, 00:49:04,VALID,915.832,VALID,0,VALID,95.0716,VALID,0.107441,VALID,18.1821,VALID,37,VALID,0,
2012-01-18, 00:50:04,VALID,915.843,VALID,0,VALID,95.1707,VALID,0,VALID,18.203,VALID,37,VALID,0.084375,
2012-01-18, 00:51:04,VALID,915.842,VALID,0,VALID,95.2698,VALID,0,VALID,18.1821,VALID,37,VALID,0,
2012-01-18, 00:52:04,VALID,915.838,VALID,0,VALID,95.4147,VALID,0,VALID,18.2615,VALID,17,VALID,0.709766,
2012-01-18, 00:53:04,VALID,915.847,VALID,0,VALID,95.1402,VALID,0.107441,VALID,18.299,VALID,39,VALID,0.374609,
2012-01-18, 00:54:04,VALID,915.839,VALID,0,VALID,94.9878,VALID,0,VALID,18.338,VALID,39,VALID,0.490234,
2012-01-18, 00:55:04,VALID,915.836,VALID,0,VALID,94.7972,VALID,0,VALID,18.3965,VALID,39,VALID,0.389453,
2012-01-18, 00:56:04,VALID,915.808,VALID,0,VALID,94.5609,VALID,0.107441,VALID,18.4355,VALID,39,VALID,0.567969,
2012-01-18, 00:57:04,VALID,915.808,VALID,0,VALID,94.4008,VALID,0.107441,VALID,18.4536,VALID,39,VALID,0.430859,
2012-01-18, 00:58:04,VALID,915.791,VALID,0,VALID,94.2026,VALID,0,VALID,18.5149,VALID,39,VALID,0.247266,
2012-01-18, 00:59:04,VALID,915.773,VALID,0,VALID,93.9662,VALID,0,VALID,18.494,VALID,39,VALID,0.19375,
2012-01-18, 01:00:04,VALID,915.717,VALID,0,VALID,93.8138,VALID,0,VALID,18.4745,VALID,39,VALID,0.253125,
2012-01-18, 01:01:04,VALID,915.705,VALID,0,VALID,93.7375,VALID,0,VALID,18.455,VALID,39,VALID,0.23125,
2012-01-18, 01:02:04,VALID,915.686,VALID,0,VALID,93.768,VALID,0.107441,VALID,18.4341,VALID,39,VALID,0.289453,
2012-01-18, 01:03:04,VALID,915.68,VALID,0,VALID,93.6918,VALID,0.107441,VALID,18.4926,VALID,79,VALID,0.398828,
2012-01-18, 01:04:04,VALID,915.683,VALID,0,VALID,93.3945,VALID,0.107441,VALID,18.533,VALID,79,VALID,0.170703,
2012-01-18, 01:05:04,VALID,915.71,VALID,0,VALID,93.2496,VALID,0,VALID,18.5135,VALID,79,VALID,0.0730469,
2012-01-18, 01:06:04,VALID,915.68,VALID,0,VALID,93.2344,VALID,0,VALID,18.5135,VALID,79,VALID,0.145313,
2012-01-18, 01:07:04,VALID,915.707,VALID,0,VALID,93.303,VALID,0,VALID,18.5135,VALID,79,VALID,0.270312,
2012-01-18, 01:08:04,VALID,915.682,VALID,0,VALID,93.2039,VALID,0,VALID,18.5135,VALID,79,VALID,0.197266,
2012-01-18, 01:09:04,VALID,915.672,VALID,0,VALID,93.1734,VALID,0,VALID,18.4745,VALID,79,VALID,0,
2012-01-18, 01:10:04,VALID,915.703,VALID,0,VALID,93.3106,VALID,0,VALID,18.4355,VALID,79,VALID,0,
2012-01-18, 01:11:04,VALID,915.668,VALID,0,VALID,93.3945,VALID,0,VALID,18.416,VALID,79,VALID,0,
2012-01-18, 01:12:04,VALID,915.667,VALID,0,VALID,93.5774,VALID,0,VALID,18.3979,VALID,79,VALID,0.240625,
2012-01-18, 01:13:04,VALID,915.716,VALID,0,VALID,93.6003,VALID,0,VALID,18.4383,VALID,79,VALID,0.0339844,
2012-01-18, 01:14:04,VALID,915.674,VALID,0,VALID,93.646,VALID,0,VALID,18.3979,VALID,79,VALID,0.00546875,
2012-01-18, 01:15:04,VALID,915.7,VALID,0,VALID,93.6994,VALID,0,VALID,18.3589,VALID,79,VALID,0,
2012-01-18, 01:16:04,VALID,915.673,VALID,0,VALID,93.7833,VALID,0,VALID,18.3798,VALID,79,VALID,0.887891,
2012-01-18, 01:17:04,VALID,915.694,VALID,0,VALID,93.8824,VALID,0,VALID,18.3394,VALID,79,VALID,0.483594,
2012-01-18, 01:18:04,VALID,915.679,VALID,0,VALID,93.7604,VALID,0,VALID,18.3199,VALID,79,VALID,0.846094,
2012-01-18, 01:19:04,VALID,915.681,VALID,0,VALID,93.7528,VALID,0,VALID,18.3004,VALID,69,VALID,1.05625,
2012-01-18, 01:20:04,VALID,915.659,VALID,0,VALID,93.829,VALID,0,VALID,18.3199,VALID,68,VALID,0.378906,
2012-01-18, 01:21:04,VALID,915.639,VALID,0,VALID,93.8443,VALID,0,VALID,18.3603,VALID,68,VALID,0.327344,
2012-01-18, 01:22:04,VALID,915.649,VALID,0,VALID,93.7451,VALID,0,VALID,18.3589,VALID,69,VALID,0,
2012-01-18, 01:23:04,VALID,915.637,VALID,0,VALID,93.7528,VALID,0,VALID,18.3589,VALID,68,VALID,0,
2012-01-18, 01:24:04,VALID,915.627,VALID,0,VALID,93.6308,VALID,0,VALID,18.3993,VALID,69,VALID,0.321875,
2012-01-18, 01:25:04,VALID,915.56,VALID,0,VALID,93.5241,VALID,0,VALID,18.3784,VALID,69,VALID,0,
2012-01-18, 01:26:04,VALID,915.544,VALID,0,VALID,93.6079,VALID,0,VALID,18.3589,VALID,68,VALID,0.264453,
2012-01-18, 01:27:04,VALID,915.544,VALID,0,VALID,93.6689,VALID,0,VALID,18.377,VALID,69,VALID,0,
2012-01-18, 01:28:04,VALID,915.522,VALID,0,VALID,93.5698,VALID,0,VALID,18.416,VALID,69,VALID,0,
2012-01-18, 01:29:04,VALID,915.483,VALID,0,VALID,93.5774,VALID,0.107441,VALID,18.416,VALID,69,VALID,0,
2012-01-18, 01:30:04,VALID,915.455,VALID,0,VALID,93.5012,VALID,0,VALID,18.416,VALID,69,VALID,0.190234,
2012-01-18, 01:31:04,VALID,915.444,VALID,0,VALID,93.3259,VALID,0,VALID,18.3965,VALID,69,VALID,0,
2012-01-18, 01:32:04,VALID,915.434,VALID,0,VALID,93.2801,VALID,0,VALID,18.3575,VALID,69,VALID,0,
2012-01-18, 01:33:04,VALID,915.455,VALID,0,VALID,93.5012,VALID,0,VALID,18.3589,VALID,68,VALID,0.357422,
2012-01-18, 01:34:04,VALID,915.43,VALID,0,VALID,93.6079,VALID,0,VALID,18.3185,VALID,69,VALID,0.0171875,
2012-01-18, 01:35:04,VALID,915.452,VALID,0,VALID,93.6842,VALID,0,VALID,18.3004,VALID,69,VALID,0.334766,
2012-01-18, 01:36:04,VALID,915.421,VALID,0,VALID,93.7299,VALID,0,VALID,18.2601,VALID,68,VALID,0.380469,
2012-01-18, 01:37:04,VALID,915.387,VALID,0,VALID,93.6384,VALID,0,VALID,18.242,VALID,68,VALID,0.958594,
2012-01-18, 01:38:04,VALID,915.404,VALID,0,VALID,93.7299,VALID,0,VALID,18.2211,VALID,46,VALID,0.916016,
2012-01-18, 01:39:04,VALID,915.394,VALID,0,VALID,93.8214,VALID,0,VALID,18.242,VALID,46,VALID,0.575391,
2012-01-18, 01:40:04,VALID,915.42,VALID,0,VALID,93.6918,VALID,0,VALID,18.2406,VALID,46,VALID,0.825781,
2012-01-18, 01:41:04,VALID,915.423,VALID,0,VALID,93.5622,VALID,0,VALID,18.2615,VALID,46,VALID,0.824609,
2012-01-18, 01:42:04,VALID,915.407,VALID,0,VALID,94.0577,VALID,0,VALID,18.2809,VALID,46,VALID,0.861719,
2012-01-18, 01:43:04,VALID,915.366,VALID,0,VALID,93.9738,VALID,0,VALID,18.2796,VALID,20,VALID,1.29805,
2012-01-18, 01:44:04,VALID,915.355,VALID,0,VALID,93.9052,VALID,0,VALID,18.338,VALID,1,VALID,1.20469,
2012-01-18, 01:45:04,VALID,915.361,VALID,0,VALID,93.5698,VALID,0,VALID,18.4355,VALID,1,VALID,0.866016,
2012-01-18, 01:46:04,VALID,915.355,VALID,0,VALID,93.646,VALID,0,VALID,18.494,VALID,1,VALID,0.759375,
2012-01-18, 01:47:04,VALID,915.349,VALID,0,VALID,93.4936,VALID,0,VALID,18.5135,VALID,355,VALID,0.785156,
2012-01-18, 01:48:04,VALID,915.332,VALID,0,VALID,93.6613,VALID,0,VALID,18.5525,VALID,349,VALID,0.913281,
2012-01-18, 01:49:04,VALID,915.359,VALID,0,VALID,93.6918,VALID,0,VALID,18.5929,VALID,349,VALID,0.739062,
2012-01-18, 01:50:04,VALID,915.337,VALID,0,VALID,93.6079,VALID,0,VALID,18.572,VALID,349,VALID,0.601563,
2012-01-18, 01:51:04,VALID,915.328,VALID,0,VALID,93.646,VALID,0,VALID,18.5525,VALID,349,VALID,1.04141,
2012-01-18, 01:52:04,VALID,915.297,VALID,0,VALID,93.646,VALID,0,VALID,18.572,VALID,349,VALID,0.864062,
2012-01-18, 01:53:04,VALID,915.305,VALID,0,VALID,93.5469,VALID,0,VALID,18.5914,VALID,349,VALID,1.11367,
2012-01-18, 01:54:04,VALID,915.291,VALID,0,VALID,93.4555,VALID,0,VALID,18.6304,VALID,349,VALID,1.03164,
2012-01-18, 01:55:04,VALID,915.281,VALID,0,VALID,93.303,VALID,0,VALID,18.6304,VALID,349,VALID,0.858594,
2012-01-18, 01:56:04,VALID,915.261,VALID,0,VALID,93.425,VALID,0,VALID,18.5914,VALID,349,VALID,0.596484,
2012-01-18, 01:57:04,VALID,915.259,VALID,0,VALID,93.4631,VALID,0,VALID,18.5914,VALID,349,VALID,0.594531,
2012-01-18, 01:58:04,VALID,915.239,VALID,0,VALID,93.425,VALID,0,VALID,18.6124,VALID,349,VALID,0.541016,
2012-01-18, 01:59:04,VALID,915.241,VALID,0,VALID,93.5317,VALID,0,VALID,18.572,VALID,349,VALID,0.958594,
2012-01-18, 02:00:04,VALID,915.229,VALID,0,VALID,93.6003,VALID,0.107441,VALID,18.533,VALID,349,VALID,0.708594,
2012-01-18, 02:01:04,VALID,915.187,VALID,0,VALID,93.5698,VALID,0.107441,VALID,18.5135,VALID,349,VALID,0.795703,
2012-01-18, 02:02:04,VALID,915.218,VALID,0,VALID,93.7985,VALID,0,VALID,18.455,VALID,349,VALID,0.942578,
2012-01-18, 02:03:04,VALID,915.203,VALID,0,VALID,93.8824,VALID,0,VALID,18.455,VALID,349,VALID,0.877734,
2012-01-18, 02:04:04,VALID,915.175,VALID,0,VALID,93.9662,VALID,0,VALID,18.4355,VALID,360,VALID,1.33398,
2012-01-18, 02:05:04,VALID,915.132,VALID,0,VALID,93.6537,VALID,0,VALID,18.494,VALID,20,VALID,0.845312,
2012-01-18, 02:06:04,VALID,915.139,VALID,0,VALID,93.3487,VALID,0,VALID,18.5135,VALID,20,VALID,0.9125,
2012-01-18, 02:07:04,VALID,915.124,VALID,0,VALID,93.3716,VALID,0,VALID,18.5525,VALID,355,VALID,0.795703,
2012-01-18, 02:08:04,VALID,915.136,VALID,0,VALID,93.1581,VALID,0,VALID,18.5914,VALID,355,VALID,0.841016,
2012-01-18, 02:09:04,VALID,915.102,VALID,0,VALID,92.9752,VALID,0,VALID,18.6319,VALID,356,VALID,1.32031,
2012-01-18, 02:10:04,VALID,915.127,VALID,0,VALID,92.655,VALID,0,VALID,18.6694,VALID,15,VALID,0.696094,
2012-01-18, 02:11:04,VALID,915.141,VALID,0,VALID,92.4568,VALID,0,VALID,18.7098,VALID,15,VALID,0.648828,
2012-01-18, 02:12:04,VALID,915.103,VALID,0,VALID,92.251,VALID,0,VALID,18.6903,VALID,15,VALID,0.233203,
2012-01-18, 02:13:04,VALID,915.106,VALID,0,VALID,92.3577,VALID,0,VALID,18.6109,VALID,15,VALID,0.30625,
2012-01-18, 02:14:04,VALID,915.074,VALID,0,VALID,92.3882,VALID,0,VALID,18.5525,VALID,15,VALID,0.503516,
2012-01-18, 02:15:04,VALID,915.086,VALID,0,VALID,92.7084,VALID,0,VALID,18.5344,VALID,15,VALID,1.09453,
2012-01-18, 02:16:04,VALID,915.101,VALID,0,VALID,92.9981,VALID,0,VALID,18.5149,VALID,15,VALID,0.969531,
2012-01-18, 02:17:04,VALID,915.107,VALID,0,VALID,93.181,VALID,0,VALID,18.494,VALID,15,VALID,0.821484,
2012-01-18, 02:18:04,VALID,915.05,VALID,0,VALID,93.2649,VALID,0,VALID,18.5135,VALID,15,VALID,0.778906,
2012-01-18, 02:19:04,VALID,915.01,VALID,0,VALID,93.1505,VALID,0.107441,VALID,18.5135,VALID,15,VALID,0.496094,
2012-01-18, 02:20:04,VALID,914.975,VALID,0,VALID,93.1581,VALID,0,VALID,18.4745,VALID,15,VALID,0.0847656,
2012-01-18, 02:21:04,VALID,914.952,VALID,0,VALID,93.1505,VALID,0,VALID,18.4745,VALID,15,VALID,0.74375,
2012-01-18, 02:22:04,VALID,914.991,VALID,0,VALID,93.1963,VALID,0,VALID,18.4745,VALID,15,VALID,0.2875,
2012-01-18, 02:23:04,VALID,914.987,VALID,0,VALID,93.1505,VALID,0.107441,VALID,18.494,VALID,15,VALID,0,
2012-01-18, 02:24:04,VALID,914.971,VALID,0,VALID,93.2039,VALID,0,VALID,18.494,VALID,15,VALID,0,
2012-01-18, 02:25:04,VALID,914.959,VALID,0,VALID,93.181,VALID,0.107441,VALID,18.455,VALID,15,VALID,0,
2012-01-18, 02:26:04,VALID,914.895,VALID,0,VALID,93.0667,VALID,0,VALID,18.455,VALID,15,VALID,0.260547,
2012-01-18, 02:27:04,VALID,914.906,VALID,0,VALID,93.0743,VALID,0,VALID,18.3979,VALID,15,VALID,0.750781,
2012-01-18, 02:28:04,VALID,914.923,VALID,0,VALID,93.2496,VALID,0,VALID,18.338,VALID,15,VALID,0.504297,
2012-01-18, 02:29:04,VALID,914.938,VALID,0,VALID,93.4783,VALID,0,VALID,18.3394,VALID,15,VALID,0.357812,
2012-01-18, 02:30:04,VALID,914.922,VALID,0,VALID,93.7451,VALID,0,VALID,18.3199,VALID,15,VALID,0.0390625,
2012-01-18, 02:31:04,VALID,914.898,VALID,0,VALID,93.8443,VALID,0,VALID,18.299,VALID,15,VALID,0.344141,
2012-01-18, 02:32:04,VALID,914.904,VALID,0,VALID,94.0958,VALID,0,VALID,18.338,VALID,15,VALID,0.707422,
2012-01-18, 02:33:04,VALID,914.881,VALID,0,VALID,93.6689,VALID,0,VALID,18.3185,VALID,15,VALID,0.662891,
2012-01-18, 02:34:04,VALID,914.87,VALID,0,VALID,93.768,VALID,0,VALID,18.3199,VALID,15,VALID,0.552734,
2012-01-18, 02:35:04,VALID,914.859,VALID,0,VALID,93.5393,VALID,0,VALID,18.3004,VALID,15,VALID,0.706641,
2012-01-18, 02:36:04,VALID,914.828,VALID,0,VALID,93.7756,VALID,0,VALID,18.3004,VALID,15,VALID,0.975,
2012-01-18, 02:37:04,VALID,914.842,VALID,0,VALID,93.8061,VALID,0,VALID,18.3004,VALID,15,VALID,1.00117,
2012-01-18, 02:38:04,VALID,914.824,VALID,0,VALID,93.7528,VALID,0,VALID,18.3199,VALID,15,VALID,1.0793,
2012-01-18, 02:39:04,VALID,914.834,VALID,0,VALID,93.8443,VALID,0,VALID,18.3004,VALID,15,VALID,0.887109,
2012-01-18, 02:40:04,VALID,914.828,VALID,0,VALID,94.2178,VALID,0,VALID,18.3004,VALID,345,VALID,1.01445,
2012-01-18, 02:41:04,VALID,914.857,VALID,0,VALID,94.1187,VALID,0,VALID,18.3589,VALID,345,VALID,0.874219,
2012-01-18, 02:42:04,VALID,914.86,VALID,0,VALID,94.073,VALID,0,VALID,18.4174,VALID,345,VALID,0.769922,
2012-01-18, 02:43:04,VALID,914.828,VALID,0,VALID,93.89,VALID,0,VALID,18.4355,VALID,345,VALID,0.44375,
2012-01-18, 02:44:04,VALID,914.822,VALID,0,VALID,93.6613,VALID,0,VALID,18.4564,VALID,345,VALID,0,
2012-01-18, 02:45:04,VALID,914.79,VALID,0,VALID,93.4021,VALID,0,VALID,18.4174,VALID,345,VALID,0.796094,
2012-01-18, 02:46:04,VALID,914.785,VALID,0,VALID,93.4478,VALID,0,VALID,18.377,VALID,345,VALID,0.970703,
2012-01-18, 02:47:04,VALID,914.793,VALID,0,VALID,93.9434,VALID,0,VALID,18.4369,VALID,345,VALID,0.784375,
2012-01-18, 02:48:04,VALID,914.793,VALID,0,VALID,93.8366,VALID,0,VALID,18.4564,VALID,345,VALID,0.303516,
2012-01-18, 02:49:04,VALID,914.78,VALID,0,VALID,93.5622,VALID,0,VALID,18.4369,VALID,345,VALID,0.190625,
2012-01-18, 02:50:04,VALID,914.79,VALID,0,VALID,93.3564,VALID,0,VALID,18.377,VALID,345,VALID,1.07578,
2012-01-18, 02:51:04,VALID,914.817,VALID,0,VALID,93.9662,VALID,0.107441,VALID,18.3589,VALID,345,VALID,0.732813,
2012-01-18, 02:52:04,VALID,914.836,VALID,0,VALID,94.0577,VALID,0,VALID,18.3394,VALID,345,VALID,0.817969,
2012-01-18, 02:53:04,VALID,914.833,VALID,0,VALID,94.2254,VALID,0,VALID,18.3199,VALID,345,VALID,0.710938,
2012-01-18, 02:54:04,VALID,914.84,VALID,0,VALID,94.3779,VALID,0,VALID,18.299,VALID,345,VALID,0.845312,
2012-01-18, 02:55:04,VALID,914.798,VALID,0,VALID,94.4999,VALID,0,VALID,18.2601,VALID,345,VALID,0.858984,
2012-01-18, 02:56:04,VALID,914.823,VALID,0,VALID,94.6905,VALID,0,VALID,18.2809,VALID,345,VALID,1.02969,
2012-01-18, 02:57:04,VALID,914.807,VALID,0,VALID,94.5609,VALID,0,VALID,18.3004,VALID,345,VALID,0.844141,
2012-01-18, 02:58:04,VALID,914.758,VALID,0,VALID,94.5685,VALID,0,VALID,18.3394,VALID,345,VALID,1.02344,
2012-01-18, 02:59:04,VALID,914.756,VALID,0,VALID,94.4465,VALID,0,VALID,18.3979,VALID,345,VALID,0.917188,
2012-01-18, 03:00:04,VALID,914.737,VALID,0,VALID,93.9815,VALID,0,VALID,18.4369,VALID,345,VALID,0.708594,
2012-01-18, 03:01:04,VALID,914.741,VALID,0,VALID,93.7756,VALID,0,VALID,18.4174,VALID,345,VALID,0.41875,
2012-01-18, 03:02:04,VALID,914.708,VALID,0,VALID,93.7375,VALID,0,VALID,18.377,VALID,19,VALID,1.35859,
2012-01-18, 03:03:04,VALID,914.732,VALID,0,VALID,93.9738,VALID,0,VALID,18.3965,VALID,350,VALID,1.07656,
2012-01-18, 03:04:04,VALID,914.738,VALID,0,VALID,93.9815,VALID,0,VALID,18.4759,VALID,350,VALID,0.291406,
2012-01-18, 03:05:04,VALID,914.677,VALID,0,VALID,93.7451,VALID,0,VALID,18.4759,VALID,350,VALID,0.422656,
2012-01-18, 03:06:04,VALID,914.647,VALID,0,VALID,93.3335,VALID,0,VALID,18.4355,VALID,24,VALID,1.43242,
2012-01-18, 03:07:04,VALID,914.691,VALID,0,VALID,93.7299,VALID,0,VALID,18.4564,VALID,23,VALID,1.21133,
2012-01-18, 03:08:04,VALID,914.686,VALID,0,VALID,93.7375,VALID,0,VALID,18.4369,VALID,23,VALID,0.580078,
2012-01-18, 03:09:04,VALID,914.689,VALID,0,VALID,93.8671,VALID,0,VALID,18.4564,VALID,23,VALID,0.120312,
2012-01-18, 03:10:04,VALID,914.637,VALID,0,VALID,93.6689,VALID,0,VALID,18.4174,VALID,23,VALID,1.05664,
2012-01-18, 03:11:04,VALID,914.639,VALID,0,VALID,93.6155,VALID,0,VALID,18.3784,VALID,23,VALID,1.29141,
2012-01-18, 03:12:04,VALID,914.602,VALID,0,VALID,93.9662,VALID,0,VALID,18.3784,VALID,21,VALID,1.5332,
2012-01-18, 03:13:04,VALID,914.645,VALID,0,VALID,94.0425,VALID,0,VALID,18.416,VALID,24,VALID,0.958984,
2012-01-18, 03:14:04,VALID,914.66,VALID,0,VALID,93.8976,VALID,0,VALID,18.4369,VALID,23,VALID,0.794922,
2012-01-18, 03:15:04,VALID,914.663,VALID,0,VALID,93.7756,VALID,0,VALID,18.455,VALID,24,VALID,0.738672,
2012-01-18, 03:16:04,VALID,914.65,VALID,0,VALID,93.5012,VALID,0,VALID,18.4759,VALID,23,VALID,1.2668,
2012-01-18, 03:17:04,VALID,914.649,VALID,0,VALID,93.4478,VALID,0,VALID,18.4759,VALID,24,VALID,0.912891,
2012-01-18, 03:18:04,VALID,914.653,VALID,0,VALID,93.2496,VALID,0,VALID,18.455,VALID,24,VALID,0.402344,
2012-01-18, 03:19:04,VALID,914.644,VALID,0,VALID,93.2039,VALID,0,VALID,18.4355,VALID,24,VALID,0.761328,
2012-01-18, 03:20:04,VALID,914.639,VALID,0,VALID,93.2954,VALID,0,VALID,18.4369,VALID,24,VALID,0.197656,
2012-01-18, 03:21:04,VALID,914.6,VALID,0,VALID,93.3487,VALID,0,VALID,18.3965,VALID,24,VALID,0.501953,
2012-01-18, 03:22:04,VALID,914.641,VALID,0,VALID,93.5622,VALID,0,VALID,18.3965,VALID,24,VALID,0.463281,
2012-01-18, 03:23:04,VALID,914.636,VALID,0,VALID,93.6689,VALID,0,VALID,18.377,VALID,24,VALID,0.101953,
2012-01-18, 03:24:04,VALID,914.587,VALID,0,VALID,93.8214,VALID,0,VALID,18.3589,VALID,24,VALID,0.233984,
2012-01-18, 03:25:04,VALID,914.575,VALID,0,VALID,93.8824,VALID,0,VALID,18.3394,VALID,23,VALID,0.564844,
2012-01-18, 03:26:04,VALID,914.603,VALID,0,VALID,94.0425,VALID,0,VALID,18.3185,VALID,24,VALID,0.5375,
2012-01-18, 03:27:04,VALID,914.568,VALID,0,VALID,94.2178,VALID,0,VALID,18.3575,VALID,357,VALID,1.00859,
2012-01-18, 03:28:04,VALID,914.574,VALID,0,VALID,93.9586,VALID,0,VALID,18.3965,VALID,357,VALID,0.414063,
2012-01-18, 03:29:04,VALID,914.576,VALID,0,VALID,93.707,VALID,0,VALID,18.416,VALID,357,VALID,0.844531,
2012-01-18, 03:30:04,VALID,914.584,VALID,0,VALID,93.6918,VALID,0,VALID,18.3965,VALID,357,VALID,0.275781,
2012-01-18, 03:31:04,VALID,914.634,VALID,0,VALID,93.6689,VALID,0,VALID,18.3965,VALID,357,VALID,0,
2012-01-18, 03:32:04,VALID,914.586,VALID,0,VALID,93.7223,VALID,0,VALID,18.4174,VALID,357,VALID,0.0332031,
2012-01-18, 03:33:04,VALID,914.578,VALID,0,VALID,93.7756,VALID,0,VALID,18.377,VALID,357,VALID,0.0671875,
2012-01-18, 03:34:04,VALID,914.568,VALID,0,VALID,93.7528,VALID,0,VALID,18.3575,VALID,357,VALID,0.364844,
2012-01-18, 03:35:04,VALID,914.594,VALID,0,VALID,93.9281,VALID,0,VALID,18.3185,VALID,357,VALID,0.95625,
2012-01-18, 03:36:04,VALID,914.551,VALID,0,VALID,93.9815,VALID,0,VALID,18.2601,VALID,357,VALID,0.200391,
2012-01-18, 03:37:04,VALID,914.528,VALID,0,VALID,94.2712,VALID,0,VALID,18.3004,VALID,357,VALID,0.38125,
2012-01-18, 03:38:04,VALID,914.539,VALID,0,VALID,94.073,VALID,0.107441,VALID,18.2601,VALID,357,VALID,0.733594,
2012-01-18, 03:39:04,VALID,914.535,VALID,0,VALID,94.2635,VALID,0,VALID,18.2406,VALID,357,VALID,0.149219,
2012-01-18, 03:40:04,VALID,914.508,VALID,0,VALID,94.294,VALID,0,VALID,18.2406,VALID,357,VALID,0,
2012-01-18, 03:41:04,VALID,914.547,VALID,0,VALID,94.3398,VALID,0,VALID,18.2211,VALID,357,VALID,0.0554687,
2012-01-18, 03:42:04,VALID,914.533,VALID,0,VALID,94.1797,VALID,0,VALID,18.1821,VALID,357,VALID,0,
2012-01-18, 03:43:04,VALID,914.564,VALID,0,VALID,94.1568,VALID,0,VALID,18.1236,VALID,357,VALID,0,
2012-01-18, 03:44:04,VALID,914.538,VALID,0,VALID,94.3398,VALID,0,VALID,18.0846,VALID,357,VALID,0.0128906,
2012-01-18, 03:45:04,VALID,914.531,VALID,0,VALID,94.5151,VALID,0,VALID,18.0651,VALID,357,VALID,0.894531,
2012-01-18, 03:46:04,VALID,914.57,VALID,0,VALID,94.4541,VALID,0,VALID,18.0067,VALID,357,VALID,0.155859,
2012-01-18, 03:47:04,VALID,914.552,VALID,0,VALID,94.9496,VALID,0,VALID,18.047,VALID,357,VALID,0.786719,
2012-01-18, 03:48:04,VALID,914.559,VALID,0,VALID,95.1326,VALID,0.107441,VALID,18.0651,VALID,357,VALID,0.280469,